EHI
0 0 0 0 0 0 0 0 0 0 0 2 6 11 12 12 14 18 21 20 18 16 14 13 13 12 11 11 11 13 14 13 13 13 12 12 13 15 16 16 14 13 11 10
0 0 0 0 0 0 0 0 0 0 0 2 7 11 13 14 15 17 19 19 18 18 16 14 12 12 11 11 12 13 13 12 13 13 11 10 12 15 18 17 14 13 10 8
0 0 0 0 0 0 0 0 0 1 1 3 7 10 12 15 18 18 18 18 19 20 18 14 13 13 12 11 12 13 12 12 12 12 10 9 12 17 20 19 17 15 12 10
0 0 0 0 0 0 0 0 0 1 2 3 6 8 10 15 18 19 20 21 21 21 18 15 14 13 12 11 11 11 11 11 11 11 10 11 14 18 21 22 21 19 17 16
0 0 0 0 0 0 0 0 1 1 1 3 5 6 9 14 18 21 23 24 22 19 17 16 15 13 12 11 10 10 9 8 9 10 12 14 16 17 19 20 21 20 18 16
0 0 0 0 0 0 0 0 1 1 2 4 5 7 12 18 22 24 25 25 22 19 18 19 18 15 13 12 10 9 7 5 6 10 13 14 16 16 15 16 17 16 14 12
0 0 0 0 0 0 0 1 1 1 2 5 7 12 19 24 25 26 25 24 22 20 20 20 19 17 15 13 11 10 8 6 8 11 13 14 15 14 12 11 12 12 11 9
0 0 0 0 0 0 0 1 0 1 3 5 10 17 23 25 26 26 24 22 20 19 19 18 18 16 14 13 12 12 11 11 11 11 12 14 14 11 9 8 9 9 8 7
0 0 0 0 0 0 0 0 0 2 5 9 13 19 23 25 25 24 22 19 17 16 16 16 15 14 13 12 12 12 12 12 11 10 11 12 11 8 7 7 7 7 6 6
1 1 1 1 1 1 0 0 0 2 7 12 16 20 24 27 26 23 20 18 17 17 17 16 14 12 11 11 11 10 9 8 7 6 7 7 6 5 5 6 5 4 5 5
2 2 2 2 2 2 1 1 1 3 6 11 16 20 24 28 27 24 21 19 19 19 17 15 11 9 8 8 8 8 7 5 4 3 3 3 2 2 3 3 3 2 2 3
1 1 1 2 4 5 4 3 2 3 6 9 13 18 23 27 27 23 21 20 20 18 14 10 8 7 6 6 6 6 6 5 3 1 0 0 0 0 1 1 1 0 1 1
0 0 2 4 5 6 5 4 3 5 7 9 12 17 22 24 24 21 18 16 15 12 9 6 5 6 6 6 6 6 6 5 3 1 0 0 0 1 1 0 0 0 0 0
1 1 3 5 6 5 5 4 4 6 10 13 16 20 22 22 22 18 13 10 8 7 6 6 6 7 7 7 6 6 6 5 3 2 1 1 1 1 1 0 0 0 0 0
0 1 3 5 4 4 4 5 6 8 13 18 21 23 23 21 18 14 10 7 6 6 6 7 8 9 9 8 8 7 6 4 3 3 3 2 1 1 1 1 0 0 0 0
0 1 3 4 3 4 5 7 8 11 15 19 21 22 22 20 15 11 8 8 8 7 7 7 8 10 11 11 9 8 6 4 3 3 3 3 3 2 2 2 1 0 0 0
0 1 2 3 3 4 7 8 10 13 16 17 16 17 18 17 13 9 9 10 10 9 7 7 9 11 12 12 10 8 5 4 3 3 3 3 3 3 3 2 1 0 0 0
0 0 1 3 3 5 7 10 12 14 15 14 12 11 12 12 11 10 10 11 12 10 8 8 9 11 12 11 9 7 6 5 4 3 3 3 3 3 2 1 0 0 0 0
0 0 1 2 4 5 7 10 13 13 12 10 8 6 6 7 8 9 10 11 12 10 9 9 8 10 11 10 8 6 5 4 3 3 3 2 2 1 1 0 0 0 0 0
0 1 2 3 5 6 7 9 10 8 6 5 5 4 3 5 6 7 7 8 9 10 9 8 8 10 11 9 6 5 4 3 3 2 1 1 1 0 0 0 0 0 0 0
1 2 3 5 6 6 6 6 5 3 3 4 4 3 4 5 6 5 5 5 8 9 8 8 8 9 9 6 3 2 3 2 2 1 0 0 0 0 0 0 0 0 0 0
4 4 4 6 6 6 5 4 3 3 5 6 5 4 4 6 6 5 4 4 6 7 7 7 6 6 4 2 1 1 1 1 1 0 0 0 0 0 0 0 0 0 0 0
7 5 4 4 5 6 5 5 4 4 5 7 7 6 5 5 5 5 4 4 4 5 6 5 4 2 1 0 0 0 0 0 0 0 0 0 0 0 0 0 0 0 0 0
6 5 5 4 4 5 5 5 4 4 4 6 7 7 7 5 5 5 4 3 3 3 4 3 1 0 0 0 0 0 0 0 0 0 0 0 0 0 0 0 0 0 0 0
5 5 5 5 5 5 5 4 3 3 3 4 5 5 5 5 5 5 4 3 2 2 2 1 0 0 0 1 1 0 0 0 0 0 0 0 0 0 0 0 0 0 0 0
3 4 5 6 5 5 4 4 3 3 3 3 3 2 2 3 4 4 3 3 3 2 2 1 0 0 0 1 1 0 0 0 0 0 0 0 0 0 0 0 0 0 0 0
3 3 5 5 4 4 4 4 3 3 3 3 2 1 0 1 3 3 3 3 3 3 2 1 0 0 0 1 1 0 0 0 0 0 0 0 0 0 0 0 0 0 0 0
Wind_Speed
7 5 6 7 8 8 9 10 10 7 7 4 2 2 2 4 5 5 6 5 5 4 5 4 4 4 3 2 2 2 2 1 1 1 1 0 0 1 1 1 1 1 2 2
8 7 7 9 9 9 8 9 9 9 7 2 1 2 3 4 6 6 6 6 5 5 5 5 4 4 3 3 2 2 2 1 1 0 1 0 0 0 0 1 1 2 2 2
8 5 9 10 7 7 8 7 8 9 5 1 2 4 4 5 5 6 6 6 6 5 5 4 4 4 3 3 2 2 2 1 1 0 0 0 1 0 1 1 1 2 2 2
6 6 10 2 1 5 7 7 7 6 4 3 3 3 4 4 5 6 6 6 5 5 5 4 4 4 4 3 3 2 1 1 0 1 1 1 1 1 1 1 1 2 2 2
7 9 8 4 3 4 6 6 5 5 4 3 2 4 5 4 4 5 5 5 5 4 4 4 4 5 4 3 3 2 1 1 0 0 1 1 1 1 1 1 2 2 2 2
7 9 8 1 2 2 6 7 1 3 3 3 4 6 3 6 4 5 5 5 5 5 5 5 4 4 4 3 2 2 2 1 1 1 1 1 1 2 2 2 3 3 2 2
9 9 5 3 2 3 7 2 2 3 3 4 4 3 4 6 5 5 5 6 5 5 4 4 4 4 3 2 2 2 1 1 1 1 1 1 1 2 2 2 3 3 3 2
8 10 4 4 2 3 4 5 4 3 3 3 1 3 4 5 6 6 6 6 5 5 4 4 4 3 3 2 1 1 1 1 1 1 2 1 1 2 2 3 3 2 3 3
4 3 3 1 2 3 5 5 4 3 2 2 3 3 4 5 6 6 5 5 5 5 4 4 3 3 2 1 1 0 0 0 0 1 1 2 2 2 2 2 3 2 2 2
4 3 1 2 3 4 4 4 4 3 2 3 3 4 4 5 5 5 5 5 5 5 5 4 3 2 2 1 1 1 1 1 2 2 2 1 2 2 2 2 2 2 3 3
5 3 3 2 3 3 3 3 3 2 2 3 3 4 4 5 5 5 5 4 4 5 4 4 3 2 1 1 1 2 2 2 3 2 1 1 1 2 3 2 3 4 4 3
4 1 4 3 3 4 3 2 1 1 2 2 3 4 5 4 4 4 4 4 4 4 4 4 4 3 1 1 2 2 3 3 2 2 1 2 2 1 1 1 1 2 3 4
4 4 4 4 4 4 3 2 1 1 1 2 3 4 5 5 4 4 4 5 5 5 4 4 4 3 2 1 2 3 3 2 2 2 2 2 2 3 2 2 4 5 5 4
3 3 4 4 4 3 3 2 1 1 2 2 3 5 5 5 5 5 4 4 4 4 4 4 3 3 2 2 2 3 3 2 3 3 2 2 2 3 3 3 2 2 3 5
3 4 4 4 4 3 2 2 2 2 3 3 4 5 5 6 5 5 4 4 4 4 4 4 3 3 2 3 3 3 3 2 2 2 2 2 2 3 3 3 3 3 3 1
4 3 3 4 3 3 3 3 2 2 3 3 4 4 4 4 4 4 4 4 4 4 4 3 3 3 3 3 3 3 3 2 3 3 2 2 2 3 3 3 3 3 4 3
5 4 4 4 4 4 4 4 3 3 3 4 3 3 4 4 4 4 4 4 3 3 3 3 3 3 3 3 4 3 3 2 3 3 2 2 3 3 3 3 3 3 3 2
6 6 6 5 5 4 4 3 3 3 2 2 3 3 3 4 4 4 4 3 3 2 2 2 2 2 3 3 3 3 2 2 2 2 2 2 3 3 3 3 3 3 3 1
4 5 5 5 5 4 4 3 3 3 3 3 4 4 4 4 3 3 3 3 3 3 2 1 2 3 3 2 3 3 2 2 2 2 2 2 3 3 3 3 3 3 3 3
3 3 3 3 3 3 2 2 2 3 3 4 4 4 4 4 4 4 3 3 1 0 1 1 2 2 2 2 3 3 2 2 2 2 2 2 2 3 3 3 3 3 3 3
3 3 2 2 2 1 2 2 2 3 3 4 5 4 4 4 4 3 3 2 2 1 1 2 2 1 1 1 4 2 2 2 1 1 2 2 3 3 3 3 3 3 3 3
3 2 2 1 1 1 1 1 2 3 3 3 4 3 3 4 4 3 2 1 2 2 2 2 1 2 1 2 2 1 1 1 1 1 1 2 2 3 3 3 3 3 3 3
2 2 1 1 1 1 1 1 2 2 3 4 4 4 4 3 2 3 2 2 2 2 1 2 4 3 1 2 1 1 1 1 1 1 1 2 2 2 2 3 2 2 3 2
2 1 1 1 1 1 1 1 1 1 2 2 3 4 4 3 3 2 2 4 4 3 2 4 4 2 3 2 1 1 1 1 1 2 2 2 2 2 2 2 2 2 2 3
1 1 0 0 0 0 1 2 2 3 3 2 3 3 3 2 2 2 2 4 5 4 3 5 5 4 3 1 1 1 1 1 2 2 2 2 3 2 2 3 3 3 3 3
1 1 1 0 0 0 1 1 1 2 2 2 2 2 2 2 2 3 3 4 5 3 2 2 3 4 2 1 1 2 2 1 2 2 2 2 3 3 2 3 4 3 3 3
0 0 1 1 1 1 1 1 1 1 1 1 1 1 2 2 2 3 3 3 4 3 2 2 2 2 2 2 2 2 2 2 2 2 2 3 3 3 3 3 3 3 3 3
Wind_Direction
267 274 259 257 256 247 254 271 283 290 288 291 245 226 191 175 167 166 161 160 157 155 141 143 142 143 141 131 133 133 143 132 106 86 69 39 42 22 14 351 350 356 337 330
246 243 250 255 253 248 251 259 267 275 283 306 242 198 195 190 180 178 173 169 162 158 151 149 145 145 143 144 138 144 152 141 108 99 121 122 246 282 5 350 344 347 343 325
250 233 251 244 244 251 249 253 264 273 289 245 224 211 205 195 189 181 172 169 167 163 160 153 150 147 146 138 133 134 141 140 137 174 170 222 259 245 285 297 319 331 328 325
253 239 248 255 259 261 259 263 278 284 280 256 250 225 202 195 190 180 170 166 159 159 156 154 145 138 133 128 126 125 123 127 134 233 242 243 244 271 293 309 317 316 318 327
250 246 245 214 203 239 252 260 275 280 278 255 214 208 190 178 178 173 164 155 154 157 149 135 128 124 128 128 118 112 87 56 22 291 296 293 284 289 293 300 301 296 311 326
242 258 260 214 120 257 256 243 252 282 266 222 206 234 170 146 156 152 148 147 147 147 137 126 122 126 134 126 105 75 54 35 24 3 326 311 309 301 298 287 288 294 311 314
244 251 251 65 101 220 245 336 16 286 252 221 229 314 97 140 152 148 145 145 143 142 136 128 127 130 133 118 94 64 50 37 29 3 312 303 318 311 302 300 306 303 303 299
241 250 247 74 189 251 342 346 323 291 247 230 201 123 137 145 148 146 147 146 145 142 131 130 137 141 135 111 79 66 52 34 5 309 302 22 338 306 298 292 277 284 291 298
262 288 22 344 311 338 325 311 309 292 251 212 187 162 151 152 153 151 152 150 151 146 136 135 143 152 152 128 109 74 312 319 314 309 306 309 290 278 270 271 286 301 299 300
256 249 326 313 307 315 317 312 308 283 244 213 192 168 159 155 156 154 153 154 155 152 148 149 156 164 161 150 169 204 227 242 242 240 247 265 290 296 301 305 307 305 308 310
243 263 269 256 322 334 335 323 315 288 230 208 181 165 160 160 159 158 158 162 164 162 158 157 157 162 170 166 198 230 234 236 247 248 257 271 282 323 315 338 339 312 315 312
276 292 285 296 317 324 322 317 319 262 215 200 182 168 161 156 159 162 163 164 168 170 169 167 168 169 177 196 214 236 239 241 248 255 261 263 260 234 169 270 212 241 267 291
303 306 302 293 297 300 295 292 265 203 201 189 178 170 162 156 161 165 170 177 175 173 174 175 173 174 180 203 224 236 249 257 263 263 259 266 279 288 283 219 214 226 229 237
284 282 277 283 294 291 285 272 212 180 187 186 165 160 159 157 161 167 174 178 173 171 174 178 179 185 190 204 225 239 246 234 250 256 262 269 277 284 291 299 293 274 219 213
272 265 270 288 288 279 263 231 198 178 163 157 151 158 163 163 167 167 168 175 177 179 184 190 195 198 204 212 219 234 246 249 252 268 266 269 278 282 288 296 298 302 302 205
282 266 257 262 270 263 242 223 216 195 174 166 167 172 162 156 158 162 170 178 185 187 189 199 208 209 211 221 224 223 226 231 259 262 266 271 276 281 288 291 291 294 302 319
265 263 264 262 260 249 240 235 232 214 194 185 178 173 162 154 156 166 173 173 180 189 196 204 213 213 214 222 234 239 238 200 214 254 271 287 291 291 293 291 291 297 311 353
266 268 271 268 260 247 235 227 214 201 192 186 174 179 181 172 172 171 170 163 174 192 204 212 220 218 219 223 236 253 250 238 229 251 269 280 287 285 284 287 294 298 308 316
273 272 274 268 259 246 233 222 210 198 187 183 186 189 186 173 168 169 175 184 189 199 204 197 201 226 218 211 235 230 238 240 242 255 267 260 263 279 290 295 298 301 309 318
291 297 288 278 265 247 235 225 216 205 200 190 186 184 176 168 162 166 178 194 207 224 168 169 194 208 212 191 237 231 230 240 250 259 268 272 279 287 288 298 309 315 316 315
313 311 301 300 302 279 255 229 210 202 194 183 183 183 177 170 166 168 185 182 144 126 152 171 201 187 182 185 227 237 229 236 244 261 279 287 292 294 297 302 307 309 307 303
323 316 314 312 296 274 251 214 185 172 166 173 181 174 172 176 178 179 182 161 128 131 180 171 141 82 55 254 230 238 239 249 261 270 278 283 287 288 294 300 298 300 302 306
321 314 312 309 307 307 169 179 170 164 174 175 176 180 185 183 189 187 171 145 140 147 175 100 89 102 253 245 247 230 221 241 262 271 276 287 286 283 289 291 292 296 299 307
333 329 342 350 7 125 134 115 125 148 167 178 174 172 176 176 180 178 139 135 137 157 140 111 132 171 236 237 243 240 246 254 263 282 300 308 308 313 310 302 299 297 299 302
357 355 25 93 188 145 126 136 145 150 159 159 157 163 180 183 173 148 144 144 149 171 149 142 171 205 229 235 232 251 253 283 304 302 303 309 307 310 313 311 309 306 307 306
336 307 6 312 303 261 188 160 162 172 166 152 158 166 160 156 162 162 166 168 167 181 179 155 179 211 225 228 249 268 278 253 242 269 299 300 302 313 316 312 304 306 310 311
195 173 197 197 165 177 193 187 189 182 162 147 149 162 174 178 180 178 183 183 183 193 197 196 208 228 244 249 247 257 267 278 283 289 297 301 310 316 314 305 304 307 306 307